Overview Statistics Trail Chart Weather Telemetry Raw packets
 

This is the latest recevied weather packets stored in our database for station/object K6POO-1. If no packets are shown the sender has not sent any weather packets the latest 10 day(s).

<< 90 91 92 93 94 95 96 >>
Time Temp. Humidity Pressure Rain* Wind** Luminosity Snow
1788022588 18.33° C 71% 1016.2 hPa 0 mm - 674 W/m² -
1788022284 17.78° C 73% 1016.2 hPa 0 mm - 647 W/m² -
1788021983 17.78° C 73% 1016.2 hPa 0 mm - 630 W/m² -
1788021678 18.33° C 73% 1016.1 hPa 0 mm - 620 W/m² -
1788021370 17.78° C 77% 1016.3 hPa 0 mm - 602 W/m² -
1788021066 17.22° C 78% 1016.2 hPa 0 mm - 580 W/m² -
1788020761 16.67° C 80% 1016.4 hPa 0 mm - 561 W/m² -
1788020460 16.67° C 81% 1016.3 hPa 0 mm - 559 W/m² -
1788020156 16.11° C 82% 1016.2 hPa 0 mm - 555 W/m² -
1788019851 16.11° C 82% 1016.1 hPa 0 mm - 554 W/m² -
1788019550 16.11° C 82% 1016.1 hPa 0 mm - 528 W/m² -
1788019245 16.11° C 83% 1016.1 hPa 0 mm - 438 W/m² -
1788018943 16.11° C 83% 1016.1 hPa 0 mm - 322 W/m² -
1788018639 16.11° C 85% 1016 hPa 0 mm - 355 W/m² -
1788018338 15.56° C 85% 1016.1 hPa 0 mm - 334 W/m² -
1788018033 15.56° C 86% 1016 hPa 0 mm - 321 W/m² -
1788017730 15.56° C 86% 1015.9 hPa 0 mm - 271 W/m² -
1788017426 15.56° C 87% 1016 hPa 0 mm - 246 W/m² -
1788017122 15° C 87% 1016 hPa 0 mm - 75 W/m² -
1788016822 15° C 87% 1016.1 hPa 0 mm - 70 W/m² -
1788016520 15.56° C 88% 1016.1 hPa 0 mm - 88 W/m² -
1788016215 15.56° C 88% 1015.9 hPa 0 mm - 90 W/m² -
1788015914 15° C 88% 1015.8 hPa 0 mm - 66 W/m² -
1788015608 15.56° C 88% 1015.7 hPa 0 mm - 66 W/m² -
1788015303 15.56° C 89% 1015.7 hPa 0 mm - 79 W/m² -

* Rain latest hour (hover to see other rain measurements)
** Current wind speed in m/s (hover to see current wind gust speed)